Flag for Gambia Weather past 2 weeks in Serekunda, Gambia

Now
82 °F

Sunny.


Feels Like: 83 °F
Forecast: 69 / 81 °F
Wind: 9 mph from West

Location: Banjul / Yundum

Current Time: Apr 28, 2015 at 11:19:12 AM

Latest Report: Apr 28, 2015 at 11:00 AM


Visibility: 10 mi

Pressure: 29.86 "Hg

Humidity: 51%

Dew point: 63 °F

Location of SerekundaLocation

Historic Weather in Serekunda — Graph

°F

Serekunda temperature yesterday

Maximum temperature yesterday: 86 °F (at 1:00 PM)
Minimum temperature yesterday: 66 °F (at 7:00 AM)
Average temperature yesterday: 75 °F

Past Weeks' High & Low Weather Summary

 TemperatureHumidityPressure
High97 °F (Apr 13, 2:00 PM)100% (Apr 25, 7:00 AM)29.95 "Hg (Apr 25, 7:00 AM)
Low66 °F (Apr 17, 7:00 AM)25% (Apr 13, 2:00 PM)29.77 "Hg (Apr 15, 4:00 PM)
Average74 °F74%29.84 "Hg
* Reported Apr 13 10:00 AM — Apr 28 10:00 AM, Serekunda, Weather by CustomWeather, © 2015

Note: Actual official high and low records may vary slightly from our data, if they occured in-between our weather recording intervals... More about our weather records

Advertising

Serekunda weather history for previous 24 hours

 ConditionsComfort  
Time TempWeatherWind HumidityBarometerVisibility
10:00 AM
Tue, Apr 28
77 °FSunny.7 mph69%29.86 "Hg10 mi
9:00 AM73 °FSunny.18 mph78%29.83 "Hg10 mi
8:00 AM70 °FSunny.No wind83%29.83 "Hg10 mi
7:00 AM68 °FSunny.No wind88%29.83 "Hg10 mi
6:00 AM68 °FPassing clouds.No wind83%29.83 "HgN/A
5:00 AM68 °FPassing clouds.10 mph88%29.83 "HgN/A
4:00 AM70 °FPassing clouds.7 mph83%29.83 "HgN/A
3:00 AM70 °FPassing clouds.2 mph83%29.83 "HgN/A
2:00 AM70 °FPassing clouds.6 mph88%29.86 "HgN/A
1:00 AM70 °FPassing clouds.8 mph83%29.89 "HgN/A
12:00 AM70 °FPassing clouds.6 mph88%29.89 "HgN/A
11:00 PM
Mon, Apr 27
72 °FPassing clouds.7 mph83%29.89 "HgN/A
10:00 PM72 °FPassing clouds.7 mph83%29.86 "HgN/A
9:00 PM73 °FPassing clouds.10 mph78%29.86 "HgN/A
8:00 PM73 °FPassing clouds.12 mph83%29.83 "HgN/A
7:00 PM75 °FPartly sunny.18 mph74%29.83 "HgN/A
6:00 PM77 °FPartly sunny.17 mph69%29.80 "HgN/A
5:00 PM81 °FPassing clouds.23 mph62%29.80 "HgN/A
4:00 PM82 °FPassing clouds.20 mph58%29.80 "HgN/A
3:00 PM84 °FSunny.23 mph55%29.83 "Hg10 mi
2:00 PM84 °FSunny.15 mph51%29.86 "Hg10 mi
1:00 PM86 °FSunny.17 mph55%29.86 "Hg10 mi
12:00 PM84 °FSunny.17 mph55%29.86 "Hg10 mi
11:00 AM82 °FSunny.13 mph55%29.89 "Hg10 mi
Weather by CustomWeather, © 2015

See weather overviewHow to use our weather pages